2015-06-19, 07:08:04,VALID,917.34,VALID,0,VALID,97.9914,VALID,102.284,VALID,19.3338,VALID,137,VALID,0,
2015-06-19, 07:09:04,VALID,917.358,VALID,0,VALID,97.9914,VALID,104.97,VALID,19.3923,VALID,137,VALID,0,
2015-06-19, 07:10:04,VALID,917.368,VALID,0,VALID,97.9304,VALID,98.9533,VALID,19.4508,VALID,146,VALID,0,
2015-06-19, 07:11:04,VALID,917.394,VALID,0,VALID,97.8389,VALID,83.8041,VALID,19.5498,VALID,151,VALID,0,
2015-06-19, 07:12:04,VALID,917.386,VALID,0,VALID,97.6636,VALID,77.3576,VALID,19.5678,VALID,150,VALID,0,
2015-06-19, 07:13:04,VALID,917.402,VALID,0,VALID,97.3968,VALID,88.3166,VALID,19.6068,VALID,142,VALID,0,
2015-06-19, 07:14:04,VALID,917.375,VALID,0,VALID,97.1452,VALID,105.185,VALID,19.6263,VALID,142,VALID,0,
2015-06-19, 07:15:04,VALID,917.41,VALID,0,VALID,97.0156,VALID,97.1268,VALID,19.6653,VALID,142,VALID,0,
2015-06-19, 07:16:04,VALID,917.384,VALID,0,VALID,96.825,VALID,117.111,VALID,19.6653,VALID,142,VALID,0,
2015-06-19, 07:17:04,VALID,917.404,VALID,0,VALID,96.7488,VALID,126.136,VALID,19.7043,VALID,141,VALID,0,
2015-06-19, 07:18:04,VALID,917.416,VALID,0,VALID,96.5963,VALID,125.062,VALID,19.7433,VALID,146,VALID,0,
2015-06-19, 07:19:04,VALID,917.411,VALID,0,VALID,96.4057,VALID,119.475,VALID,19.7823,VALID,148,VALID,0,
2015-06-19, 07:20:04,VALID,917.439,VALID,0,VALID,96.2761,VALID,118.185,VALID,19.8018,VALID,131,VALID,0,
2015-06-19, 07:21:04,VALID,917.445,VALID,0,VALID,96.2914,VALID,139.351,VALID,19.8603,VALID,133,VALID,0,
2015-06-19, 07:22:04,VALID,917.443,VALID,0,VALID,96.2761,VALID,143.756,VALID,19.9188,VALID,138,VALID,0,
2015-06-19, 07:23:04,VALID,917.469,VALID,0,VALID,96.1465,VALID,148.484,VALID,19.9773,VALID,139,VALID,0,
2015-06-19, 07:24:04,VALID,917.498,VALID,0,VALID,96.1618,VALID,153.748,VALID,20.0553,VALID,135,VALID,0,
2015-06-19, 07:25:04,VALID,917.578,VALID,0,VALID,96.0932,VALID,156.864,VALID,20.1334,VALID,129,VALID,0,
2015-06-19, 07:26:04,VALID,917.617,VALID,0,VALID,95.9407,VALID,160.087,VALID,20.2489,VALID,135,VALID,0,
2015-06-19, 07:27:04,VALID,917.632,VALID,0,VALID,95.6739,VALID,156.757,VALID,20.3659,VALID,138,VALID,0,
2015-06-19, 07:28:04,VALID,917.591,VALID,0,VALID,95.3384,VALID,95.8375,VALID,20.504,VALID,139,VALID,0,
2015-06-19, 07:29:04,VALID,917.584,VALID,0,VALID,94.9039,VALID,88.2092,VALID,20.5414,VALID,135,VALID,0,
2015-06-19, 07:30:04,VALID,917.602,VALID,0,VALID,94.6447,VALID,78.0023,VALID,20.5625,VALID,137,VALID,0,
2015-06-19, 07:31:04,VALID,917.645,VALID,0,VALID,94.3169,VALID,111.202,VALID,20.5609,VALID,141,VALID,0,
2015-06-19, 07:32:04,VALID,917.638,VALID,0,VALID,94.2178,VALID,169.757,VALID,20.5625,VALID,141,VALID,0,
2015-06-19, 07:33:04,VALID,917.66,VALID,0,VALID,94.6676,VALID,169.112,VALID,20.6194,VALID,144,VALID,0,
2015-06-19, 07:34:04,VALID,917.674,VALID,0,VALID,94.4922,VALID,178.46,VALID,20.6975,VALID,156,VALID,0,
2015-06-19, 07:35:04,VALID,917.668,VALID,0,VALID,93.0895,VALID,181.683,VALID,20.7365,VALID,153,VALID,0.875781,
2015-06-19, 07:36:04,VALID,917.657,VALID,0,VALID,91.542,VALID,186.948,VALID,20.756,VALID,140,VALID,1.2,
2015-06-19, 07:37:04,VALID,917.664,VALID,0,VALID,91.0083,VALID,195.865,VALID,20.8145,VALID,142,VALID,0.874219,
2015-06-19, 07:38:04,VALID,917.637,VALID,0,VALID,90.8864,VALID,198.874,VALID,20.8551,VALID,135,VALID,0.00195313,
2015-06-19, 07:39:04,VALID,917.661,VALID,0,VALID,90.5738,VALID,202.741,VALID,20.9316,VALID,138,VALID,0,
2015-06-19, 07:40:04,VALID,917.647,VALID,0,VALID,91.5496,VALID,210.907,VALID,20.9885,VALID,125,VALID,0,
2015-06-19, 07:41:04,VALID,917.658,VALID,0,VALID,92.4797,VALID,212.196,VALID,21.1055,VALID,125,VALID,0,
2015-06-19, 07:42:04,VALID,917.7,VALID,0,VALID,89.3464,VALID,205.75,VALID,21.1445,VALID,139,VALID,0,
2015-06-19, 07:43:04,VALID,917.695,VALID,0,VALID,89.0339,VALID,197.584,VALID,21.2242,VALID,148,VALID,0,
2015-06-19, 07:44:04,VALID,917.722,VALID,0,VALID,87.9666,VALID,196.832,VALID,21.2421,VALID,143,VALID,0,
2015-06-19, 07:45:04,VALID,917.693,VALID,0,VALID,88.0733,VALID,199.733,VALID,21.3591,VALID,177,VALID,0,
2015-06-19, 07:46:04,VALID,917.686,VALID,0,VALID,86.9832,VALID,201.13,VALID,21.4177,VALID,168,VALID,0,
2015-06-19, 07:47:04,VALID,917.678,VALID,0,VALID,86.7773,VALID,211.337,VALID,21.4762,VALID,159,VALID,0,
2015-06-19, 07:48:04,VALID,917.729,VALID,0,VALID,86.419,VALID,219.61,VALID,21.5347,VALID,155,VALID,0,
2015-06-19, 07:49:04,VALID,917.723,VALID,0,VALID,85.9693,VALID,230.998,VALID,21.6323,VALID,155,VALID,0,
2015-06-19, 07:50:04,VALID,917.716,VALID,0,VALID,85.7787,VALID,231.858,VALID,21.6713,VALID,168,VALID,0,
2015-06-19, 07:51:04,VALID,917.697,VALID,0,VALID,86.3581,VALID,234.974,VALID,21.7688,VALID,155,VALID,0,
2015-06-19, 07:52:04,VALID,917.69,VALID,0,VALID,85.3823,VALID,238.949,VALID,21.9054,VALID,157,VALID,0,
2015-06-19, 07:53:04,VALID,917.692,VALID,0,VALID,83.4535,VALID,227.668,VALID,21.9835,VALID,154,VALID,0,
2015-06-19, 07:54:04,VALID,917.707,VALID,0,VALID,83.8042,VALID,235.189,VALID,22.0437,VALID,154,VALID,0,
2015-06-19, 07:55:04,VALID,917.728,VALID,0,VALID,84.5284,VALID,239.486,VALID,22.042,VALID,141,VALID,0,
2015-06-19, 07:56:04,VALID,917.749,VALID,0,VALID,83.2858,VALID,244.536,VALID,22.1201,VALID,145,VALID,0,
2015-06-19, 07:57:04,VALID,917.794,VALID,0,VALID,83.7356,VALID,237.875,VALID,22.2193,VALID,150,VALID,0,
2015-06-19, 07:58:04,VALID,917.789,VALID,0,VALID,83.4002,VALID,226.808,VALID,22.3542,VALID,149,VALID,0,
2015-06-19, 07:59:04,VALID,917.823,VALID,0,VALID,82.028,VALID,222.726,VALID,22.4518,VALID,113,VALID,0,
2015-06-19, 08:00:04,VALID,917.817,VALID,0,VALID,82.0127,VALID,217.353,VALID,22.5316,VALID,133,VALID,0,
2015-06-19, 08:01:04,VALID,917.809,VALID,0,VALID,81.5934,VALID,218.858,VALID,22.5884,VALID,133,VALID,0,
2015-06-19, 08:02:04,VALID,917.796,VALID,0,VALID,80.4042,VALID,221.114,VALID,22.5299,VALID,133,VALID,0,
2015-06-19, 08:03:04,VALID,917.768,VALID,0,VALID,81.6849,VALID,181.79,VALID,22.4696,VALID,133,VALID,0,
2015-06-19, 08:04:04,VALID,917.77,VALID,0,VALID,80.8082,VALID,206.072,VALID,22.4713,VALID,133,VALID,0,
2015-06-19, 08:05:04,VALID,917.773,VALID,0,VALID,81.7383,VALID,217.461,VALID,22.4128,VALID,141,VALID,0,
2015-06-19, 08:06:04,VALID,917.794,VALID,0,VALID,81.6925,VALID,219.717,VALID,22.372,VALID,141,VALID,0,
2015-06-19, 08:07:04,VALID,917.828,VALID,0,VALID,82.2338,VALID,137.954,VALID,22.4323,VALID,141,VALID,0,
2015-06-19, 08:08:04,VALID,917.881,VALID,0,VALID,82.0508,VALID,188.344,VALID,22.4713,VALID,125,VALID,0,
2015-06-19, 08:09:04,VALID,917.883,VALID,0,VALID,81.9365,VALID,210.262,VALID,22.5494,VALID,130,VALID,0,
2015-06-19, 08:10:04,VALID,917.88,VALID,0,VALID,81.4943,VALID,198.981,VALID,22.6274,VALID,130,VALID,0,
2015-06-19, 08:11:04,VALID,917.912,VALID,0,VALID,81.3723,VALID,173.517,VALID,22.6452,VALID,130,VALID,0,
2015-06-19, 08:12:04,VALID,917.895,VALID,0,VALID,81.5324,VALID,225.626,VALID,22.6452,VALID,130,VALID,0,
2015-06-19, 08:13:04,VALID,917.9,VALID,0,VALID,81.4714,VALID,246.148,VALID,22.6647,VALID,130,VALID,0,
2015-06-19, 08:14:04,VALID,917.933,VALID,0,VALID,81.9441,VALID,233.899,VALID,22.6843,VALID,130,VALID,0,
2015-06-19, 08:15:04,VALID,917.984,VALID,0,VALID,81.8374,VALID,238.197,VALID,22.7428,VALID,130,VALID,0,
2015-06-19, 08:16:04,VALID,917.97,VALID,0,VALID,80.9607,VALID,272.686,VALID,22.8014,VALID,138,VALID,0,
2015-06-19, 08:17:04,VALID,917.952,VALID,0,VALID,79.84,VALID,267.851,VALID,22.8794,VALID,138,VALID,0,
2015-06-19, 08:18:04,VALID,917.935,VALID,0,VALID,79.7333,VALID,262.586,VALID,22.9575,VALID,125,VALID,0,
2015-06-19, 08:19:04,VALID,917.921,VALID,0,VALID,79.192,VALID,250.23,VALID,22.977,VALID,127,VALID,0,
2015-06-19, 08:20:04,VALID,917.907,VALID,0,VALID,78.9024,VALID,210.585,VALID,22.8794,VALID,149,VALID,0,
2015-06-19, 08:21:04,VALID,917.917,VALID,0,VALID,78.4983,VALID,308.356,VALID,22.938,VALID,147,VALID,0,
2015-06-19, 08:22:04,VALID,917.93,VALID,0,VALID,78.4831,VALID,319.423,VALID,22.9185,VALID,130,VALID,0,
2015-06-19, 08:23:04,VALID,917.908,VALID,0,VALID,80.4042,VALID,315.34,VALID,22.8989,VALID,127,VALID,0,
2015-06-19, 08:24:04,VALID,917.921,VALID,0,VALID,80.1831,VALID,281.711,VALID,23.0568,VALID,81,VALID,0,
2015-06-19, 08:25:04,VALID,917.913,VALID,0,VALID,79.5885,VALID,310.72,VALID,23.2112,VALID,64,VALID,0,
2015-06-19, 08:26:04,VALID,917.894,VALID,0,VALID,78.8719,VALID,299.331,VALID,23.3496,VALID,73,VALID,0,
2015-06-19, 08:27:04,VALID,917.88,VALID,0,VALID,79.2912,VALID,334.035,VALID,23.3088,VALID,76,VALID,0,
2015-06-19, 08:28:04,VALID,917.874,VALID,0,VALID,79.7486,VALID,335.861,VALID,23.3283,VALID,74,VALID,0,
2015-06-19, 08:29:04,VALID,917.901,VALID,0,VALID,79.2378,VALID,347.25,VALID,23.2893,VALID,107,VALID,0.00195313,
2015-06-19, 08:30:04,VALID,917.902,VALID,0,VALID,79.1692,VALID,358.209,VALID,23.1722,VALID,114,VALID,0,
2015-06-19, 08:31:04,VALID,917.895,VALID,0,VALID,81.967,VALID,345.423,VALID,23.1136,VALID,115,VALID,0,
2015-06-19, 08:32:04,VALID,917.948,VALID,0,VALID,79.962,VALID,311.364,VALID,23.1527,VALID,161,VALID,0,
2015-06-19, 08:33:04,VALID,917.9,VALID,0,VALID,78.1553,VALID,314.803,VALID,23.213,VALID,177,VALID,0,
2015-06-19, 08:34:04,VALID,917.93,VALID,0,VALID,80.0078,VALID,343.704,VALID,23.2698,VALID,155,VALID,0,
2015-06-19, 08:35:04,VALID,917.883,VALID,0,VALID,79.3674,VALID,354.448,VALID,23.465,VALID,154,VALID,0,
2015-06-19, 08:36:04,VALID,917.865,VALID,0,VALID,76.8212,VALID,364.548,VALID,23.5235,VALID,136,VALID,0,
2015-06-19, 08:37:04,VALID,917.821,VALID,0,VALID,78.4297,VALID,368.738,VALID,23.5235,VALID,105,VALID,0,
2015-06-19, 08:38:04,VALID,917.813,VALID,0,VALID,78.1858,VALID,351.225,VALID,23.5022,VALID,127,VALID,0,
2015-06-19, 08:39:04,VALID,917.809,VALID,0,VALID,78.3077,VALID,370.35,VALID,23.6016,VALID,154,VALID,0,
2015-06-19, 08:40:04,VALID,917.778,VALID,0,VALID,77.4387,VALID,369.92,VALID,23.6602,VALID,167,VALID,0,
2015-06-19, 08:41:04,VALID,917.772,VALID,0,VALID,78.0638,VALID,377.118,VALID,23.6992,VALID,147,VALID,0,
2015-06-19, 08:42:04,VALID,917.793,VALID,0,VALID,76.5086,VALID,384.424,VALID,23.7968,VALID,127,VALID,0,
2015-06-19, 08:43:04,VALID,917.846,VALID,0,VALID,77.1261,VALID,390.871,VALID,23.7187,VALID,121,VALID,0,
2015-06-19, 08:44:04,VALID,917.892,VALID,0,VALID,78.7956,VALID,401.937,VALID,23.8358,VALID,90,VALID,0,
2015-06-19, 08:45:04,VALID,917.92,VALID,0,VALID,76.4934,VALID,406.772,VALID,24.0506,VALID,56,VALID,0,
2015-06-19, 08:46:04,VALID,917.921,VALID,0,VALID,75.5785,VALID,409.995,VALID,24.2458,VALID,36,VALID,0,
2015-06-19, 08:47:04,VALID,917.917,VALID,0,VALID,74.8315,VALID,411.929,VALID,24.2849,VALID,52,VALID,0.766406,
2015-06-19, 08:48:04,VALID,917.921,VALID,0,VALID,74.8238,VALID,417.839,VALID,24.1873,VALID,39,VALID,0.00742187,
2015-06-19, 08:49:04,VALID,917.901,VALID,0,VALID,75.1745,VALID,414.078,VALID,24.1287,VALID,52,VALID,0.789844,
2015-06-19, 08:50:04,VALID,917.879,VALID,0,VALID,75.1898,VALID,417.946,VALID,23.9725,VALID,71,VALID,1.86875,
2015-06-19, 08:51:04,VALID,917.885,VALID,0,VALID,77.0956,VALID,406.88,VALID,23.7968,VALID,55,VALID,1.24648,
2015-06-19, 08:52:04,VALID,917.886,VALID,0,VALID,79.0548,VALID,404.623,VALID,23.7187,VALID,133,VALID,0.661719,
2015-06-19, 08:53:04,VALID,917.892,VALID,0,VALID,78.6584,VALID,401.4,VALID,23.7578,VALID,66,VALID,0.702344,
2015-06-19, 08:54:04,VALID,917.929,VALID,0,VALID,77.3624,VALID,407.417,VALID,23.9707,VALID,52,VALID,0.125391,
2015-06-19, 08:55:04,VALID,917.9,VALID,0,VALID,75.3956,VALID,422.781,VALID,24.0683,VALID,103,VALID,0.605078,
2015-06-19, 08:56:04,VALID,917.909,VALID,0,VALID,75.7691,VALID,423.855,VALID,24.2654,VALID,100,VALID,0.0078125,
2015-06-19, 08:57:04,VALID,917.871,VALID,0,VALID,74.6409,VALID,420.847,VALID,24.5368,VALID,36,VALID,0,
2015-06-19, 08:58:04,VALID,917.905,VALID,0,VALID,71.622,VALID,427.508,VALID,24.5759,VALID,109,VALID,0,
2015-06-19, 08:59:04,VALID,917.922,VALID,0,VALID,72.3538,VALID,428.69,VALID,24.3416,VALID,109,VALID,0,
2015-06-19, 09:00:04,VALID,917.926,VALID,0,VALID,73.5278,VALID,431.161,VALID,24.3026,VALID,97,VALID,0,
2015-06-19, 09:01:04,VALID,917.931,VALID,0,VALID,73.4059,VALID,429.227,VALID,24.3239,VALID,93,VALID,0,
2015-06-19, 09:02:04,VALID,917.912,VALID,0,VALID,74.618,VALID,423.211,VALID,24.3221,VALID,75,VALID,0,
2015-06-19, 09:03:04,VALID,917.873,VALID,0,VALID,73.5507,VALID,413.648,VALID,24.3806,VALID,150,VALID,0,
2015-06-19, 09:04:04,VALID,917.88,VALID,0,VALID,72.6283,VALID,435.889,VALID,24.4569,VALID,150,VALID,0,
2015-06-19, 09:05:04,VALID,917.882,VALID,0,VALID,72.5597,VALID,442.765,VALID,24.6735,VALID,150,VALID,0,
2015-06-19, 09:06:04,VALID,917.888,VALID,0,VALID,73.261,VALID,454.476,VALID,24.7693,VALID,150,VALID,0,
2015-06-19, 09:07:04,VALID,917.91,VALID,0,VALID,71.0655,VALID,447.922,VALID,24.8083,VALID,203,VALID,0,
2015-06-19, 09:08:04,VALID,917.933,VALID,0,VALID,71.2332,VALID,440.509,VALID,24.773,VALID,205,VALID,0,
2015-06-19, 09:09:04,VALID,917.915,VALID,0,VALID,71.8964,VALID,449.426,VALID,24.693,VALID,205,VALID,0,
2015-06-19, 09:10:04,VALID,917.886,VALID,0,VALID,72.5444,VALID,454.798,VALID,24.7926,VALID,200,VALID,0,
2015-06-19, 09:11:04,VALID,917.861,VALID,0,VALID,71.8659,VALID,415.582,VALID,25.0074,VALID,24,VALID,0,
2015-06-19, 09:12:04,VALID,917.883,VALID,0,VALID,70.791,VALID,449.534,VALID,25.1422,VALID,24,VALID,0,
2015-06-19, 09:13:04,VALID,917.908,VALID,0,VALID,70.6614,VALID,460.17,VALID,25.2593,VALID,24,VALID,0,
2015-06-19, 09:14:04,VALID,917.907,VALID,0,VALID,70.3336,VALID,480.369,VALID,25.4956,VALID,24,VALID,0,
2015-06-19, 09:15:04,VALID,917.934,VALID,0,VALID,69.4417,VALID,461.997,VALID,25.6109,VALID,23,VALID,0,
2015-06-19, 09:16:04,VALID,917.922,VALID,0,VALID,69.3121,VALID,458.774,VALID,25.8257,VALID,24,VALID,0,
2015-06-19, 09:17:04,VALID,917.902,VALID,0,VALID,67.3605,VALID,468.336,VALID,26.1382,VALID,24,VALID,0,
2015-06-19, 09:18:04,VALID,917.931,VALID,0,VALID,67.1699,VALID,438.682,VALID,26.3531,VALID,24,VALID,0,
2015-06-19, 09:19:04,VALID,917.878,VALID,0,VALID,66.2932,VALID,438.038,VALID,26.4117,VALID,28,VALID,0,
2015-06-19, 09:20:04,VALID,917.92,VALID,0,VALID,67.5663,VALID,450.608,VALID,26.3726,VALID,24,VALID,0,
2015-06-19, 09:21:04,VALID,917.921,VALID,0,VALID,68.0009,VALID,440.938,VALID,26.4117,VALID,23,VALID,0,
2015-06-19, 09:22:04,VALID,917.925,VALID,0,VALID,67.0784,VALID,484.989,VALID,26.1187,VALID,23,VALID,0,
2015-06-19, 09:23:04,VALID,917.909,VALID,0,VALID,68.0771,VALID,487.783,VALID,25.6694,VALID,23,VALID,0,
2015-06-19, 09:24:04,VALID,917.91,VALID,0,VALID,70.5242,VALID,491.651,VALID,25.1422,VALID,23,VALID,0,
2015-06-19, 09:25:04,VALID,917.913,VALID,0,VALID,72.4987,VALID,475.535,VALID,24.8102,VALID,24,VALID,0,
2015-06-19, 09:26:04,VALID,917.914,VALID,0,VALID,73.9548,VALID,468.766,VALID,24.7907,VALID,24,VALID,0.280469,
2015-06-19, 09:27:04,VALID,917.898,VALID,0,VALID,74.3436,VALID,465.972,VALID,24.8688,VALID,23,VALID,0,
2015-06-19, 09:28:04,VALID,917.918,VALID,0,VALID,72.4225,VALID,489.18,VALID,24.9255,VALID,23,VALID,0,
2015-06-19, 09:29:04,VALID,917.902,VALID,0,VALID,73.5355,VALID,501.858,VALID,24.8083,VALID,23,VALID,0,
2015-06-19, 09:30:04,VALID,917.869,VALID,0,VALID,72.7731,VALID,499.172,VALID,24.8278,VALID,23,VALID,0,
2015-06-19, 09:31:04,VALID,917.874,VALID,0,VALID,72.7274,VALID,495.196,VALID,24.7711,VALID,23,VALID,0,
2015-06-19, 09:32:04,VALID,917.808,VALID,0,VALID,73.9014,VALID,461.245,VALID,24.7321,VALID,23,VALID,0,
2015-06-19, 09:33:04,VALID,917.796,VALID,0,VALID,74.0081,VALID,506.048,VALID,24.7516,VALID,23,VALID,0,
2015-06-19, 09:34:04,VALID,917.841,VALID,0,VALID,73.3068,VALID,523.453,VALID,24.693,VALID,23,VALID,0,
2015-06-19, 09:35:04,VALID,917.861,VALID,0,VALID,74.7095,VALID,496.056,VALID,24.6131,VALID,23,VALID,0,
2015-06-19, 09:36:04,VALID,917.888,VALID,0,VALID,74.8467,VALID,510.131,VALID,24.654,VALID,23,VALID,0,
2015-06-19, 09:37:04,VALID,917.911,VALID,0,VALID,74.6485,VALID,497.99,VALID,24.6912,VALID,23,VALID,0,
2015-06-19, 09:38:04,VALID,917.917,VALID,0,VALID,75.083,VALID,515.395,VALID,24.8669,VALID,23,VALID,0,
2015-06-19, 09:39:04,VALID,917.918,VALID,0,VALID,72.3081,VALID,529.9,VALID,25.1402,VALID,23,VALID,0,
2015-06-19, 09:40:04,VALID,917.904,VALID,0,VALID,71.035,VALID,521.09,VALID,25.1422,VALID,23,VALID,0,
2015-06-19, 09:41:04,VALID,917.897,VALID,0,VALID,72.7121,VALID,542.793,VALID,25.064,VALID,23,VALID,0,
2015-06-19, 09:42:04,VALID,917.888,VALID,0,VALID,71.9574,VALID,550.206,VALID,25.0036,VALID,23,VALID,0,
2015-06-19, 09:43:04,VALID,917.889,VALID,0,VALID,73.4745,VALID,541.074,VALID,24.9059,VALID,23,VALID,0,
2015-06-19, 09:44:04,VALID,917.824,VALID,0,VALID,71.8126,VALID,509.056,VALID,24.9078,VALID,23,VALID,0,
2015-06-19, 09:45:04,VALID,917.827,VALID,0,VALID,71.3399,VALID,515.825,VALID,24.8083,VALID,23,VALID,0,
2015-06-19, 09:46:04,VALID,917.835,VALID,0,VALID,71.4009,VALID,535.916,VALID,24.8297,VALID,23,VALID,0,
2015-06-19, 09:47:04,VALID,917.859,VALID,0,VALID,71.9803,VALID,537.635,VALID,24.7693,VALID,23,VALID,0,
2015-06-19, 09:48:04,VALID,917.842,VALID,0,VALID,72.1785,VALID,539.032,VALID,24.8864,VALID,23,VALID,0,
2015-06-19, 09:49:04,VALID,917.807,VALID,0,VALID,71.8659,VALID,532.371,VALID,25.1812,VALID,24,VALID,0,
2015-06-19, 09:50:04,VALID,917.797,VALID,0,VALID,71.8964,VALID,569.76,VALID,25.4136,VALID,23,VALID,0,
2015-06-19, 09:51:04,VALID,917.813,VALID,0,VALID,69.5484,VALID,547.735,VALID,25.5523,VALID,23,VALID,0,
2015-06-19, 09:52:04,VALID,917.794,VALID,0,VALID,70.387,VALID,587.596,VALID,25.5503,VALID,23,VALID,0,
2015-06-19, 09:53:04,VALID,917.832,VALID,0,VALID,70.387,VALID,583.405,VALID,25.7261,VALID,23,VALID,0,
2015-06-19, 09:54:04,VALID,917.838,VALID,0,VALID,70.6081,VALID,581.579,VALID,25.7066,VALID,23,VALID,0,
2015-06-19, 09:55:04,VALID,917.895,VALID,0,VALID,68.7861,VALID,586.521,VALID,25.8042,VALID,23,VALID,0,
2015-06-19, 09:56:04,VALID,917.863,VALID,0,VALID,70.3641,VALID,595.976,VALID,25.8823,VALID,23,VALID,0,
2015-06-19, 09:57:04,VALID,917.895,VALID,0,VALID,70.1507,VALID,602.315,VALID,25.7651,VALID,23,VALID,0,
2015-06-19, 09:58:04,VALID,917.932,VALID,0,VALID,68.9843,VALID,594.472,VALID,25.687,VALID,343,VALID,0,
2015-06-19, 09:59:04,VALID,917.935,VALID,0,VALID,70.1278,VALID,595.009,VALID,25.6675,VALID,343,VALID,0,
2015-06-19, 10:00:04,VALID,917.926,VALID,0,VALID,71.4314,VALID,602.1,VALID,25.7066,VALID,325,VALID,0,
2015-06-19, 10:01:04,VALID,917.961,VALID,0,VALID,68.4202,VALID,605.538,VALID,25.7066,VALID,323,VALID,0,
2015-06-19, 10:02:04,VALID,917.933,VALID,0,VALID,68.2219,VALID,606.398,VALID,25.648,VALID,322,VALID,0,
2015-06-19, 10:03:04,VALID,917.953,VALID,0,VALID,69.8839,VALID,604.034,VALID,25.7066,VALID,303,VALID,0,
2015-06-19, 10:04:04,VALID,917.928,VALID,0,VALID,68.7556,VALID,605.109,VALID,25.9019,VALID,299,VALID,0,
2015-06-19, 10:05:04,VALID,917.954,VALID,0,VALID,67.574,VALID,608.547,VALID,25.8413,VALID,302,VALID,0,
2015-06-19, 10:06:04,VALID,917.94,VALID,0,VALID,69.739,VALID,610.91,VALID,25.7847,VALID,314,VALID,0,
2015-06-19, 10:07:04,VALID,917.938,VALID,0,VALID,69.7009,VALID,612.415,VALID,25.8237,VALID,311,VALID,0,
2015-06-19, 10:08:04,VALID,917.913,VALID,0,VALID,69.7771,VALID,608.762,VALID,25.9194,VALID,313,VALID,0,
2015-06-19, 10:09:04,VALID,917.89,VALID,0,VALID,69.0377,VALID,616.82,VALID,26.0757,VALID,278,VALID,0,
2015-06-19, 10:10:04,VALID,917.853,VALID,0,VALID,66.8269,VALID,617.357,VALID,26.1753,VALID,285,VALID,0,
2015-06-19, 10:11:04,VALID,917.865,VALID,0,VALID,64.9058,VALID,619.506,VALID,26.2339,VALID,278,VALID,0,
2015-06-19, 10:12:04,VALID,917.846,VALID,0,VALID,66.8116,VALID,619.613,VALID,26.1558,VALID,278,VALID,0,
2015-06-19, 10:13:04,VALID,917.801,VALID,0,VALID,67.5892,VALID,619.183,VALID,26.1928,VALID,278,VALID,0,
2015-06-19, 10:14:04,VALID,917.829,VALID,0,VALID,66.9031,VALID,616.282,VALID,26.3491,VALID,278,VALID,0,
2015-06-19, 10:15:04,VALID,917.776,VALID,0,VALID,67.0327,VALID,620.688,VALID,26.5855,VALID,295,VALID,0,
2015-06-19, 10:16:04,VALID,917.778,VALID,0,VALID,62.6416,VALID,620.795,VALID,26.6246,VALID,249,VALID,0,
2015-06-19, 10:17:04,VALID,917.827,VALID,0,VALID,65.3555,VALID,628.208,VALID,26.3296,VALID,249,VALID,0,
2015-06-19, 10:18:04,VALID,917.796,VALID,0,VALID,68.0466,VALID,627.564,VALID,26.2514,VALID,256,VALID,0,
2015-06-19, 10:19:04,VALID,917.792,VALID,0,VALID,67.2538,VALID,628.531,VALID,26.4077,VALID,312,VALID,0,
2015-06-19, 10:20:04,VALID,917.79,VALID,0,VALID,66.7278,VALID,632.076,VALID,26.4077,VALID,242,VALID,0,
2015-06-19, 10:21:04,VALID,917.772,VALID,0,VALID,67.8636,VALID,627.779,VALID,26.3882,VALID,260,VALID,0,
2015-06-19, 10:22:04,VALID,917.757,VALID,0,VALID,68.687,VALID,628.853,VALID,26.5444,VALID,299,VALID,0,
2015-06-19, 10:23:04,VALID,917.729,VALID,0,VALID,68.4278,VALID,637.663,VALID,26.859,VALID,8,VALID,0.00859375,
2015-06-19, 10:24:04,VALID,917.719,VALID,0,VALID,67.5587,VALID,643.25,VALID,27.15,VALID,9,VALID,0,
2015-06-19, 10:25:04,VALID,917.712,VALID,0,VALID,67.7569,VALID,647.978,VALID,27.1891,VALID,15,VALID,0,
2015-06-19, 10:26:04,VALID,917.703,VALID,0,VALID,66.0112,VALID,644.862,VALID,27.2477,VALID,22,VALID,0,
2015-06-19, 10:27:04,VALID,917.739,VALID,0,VALID,61.8869,VALID,644.862,VALID,27.2672,VALID,259,VALID,0.177734,
2015-06-19, 10:28:04,VALID,917.721,VALID,0,VALID,63.9681,VALID,643.68,VALID,26.9156,VALID,256,VALID,0,
2015-06-19, 10:29:04,VALID,917.745,VALID,0,VALID,64.9744,VALID,648.407,VALID,26.6616,VALID,256,VALID,0,
2015-06-19, 10:30:04,VALID,917.72,VALID,0,VALID,68.0466,VALID,653.135,VALID,26.7007,VALID,275,VALID,0,
2015-06-19, 10:31:04,VALID,917.717,VALID,0,VALID,62.7483,VALID,649.267,VALID,26.5835,VALID,223,VALID,0.686719,
2015-06-19, 10:32:04,VALID,917.686,VALID,0,VALID,65.2869,VALID,651.416,VALID,26.4663,VALID,159,VALID,0,
2015-06-19, 10:33:04,VALID,917.708,VALID,0,VALID,65.8206,VALID,653.565,VALID,26.564,VALID,167,VALID,0,
2015-06-19, 10:34:04,VALID,917.665,VALID,0,VALID,66.926,VALID,656.251,VALID,26.7768,VALID,167,VALID,0,
2015-06-19, 10:35:04,VALID,917.706,VALID,0,VALID,67.7188,VALID,661.193,VALID,26.9546,VALID,300,VALID,0,
2015-06-19, 10:36:04,VALID,917.656,VALID,0,VALID,67.6197,VALID,657.11,VALID,27.1305,VALID,301,VALID,0,
2015-06-19, 10:37:04,VALID,917.681,VALID,0,VALID,66.278,VALID,678.276,VALID,27.4626,VALID,299,VALID,0,
2015-06-19, 10:38:04,VALID,917.663,VALID,0,VALID,62.7255,VALID,684.508,VALID,27.5994,VALID,269,VALID,0,
2015-06-19, 10:39:04,VALID,917.685,VALID,0,VALID,63.4878,VALID,682.681,VALID,27.6189,VALID,205,VALID,0,
2015-06-19, 10:40:04,VALID,917.655,VALID,0,VALID,62.0089,VALID,686.442,VALID,27.6601,VALID,342,VALID,0.0378906,
2015-06-19, 10:41:04,VALID,917.659,VALID,0,VALID,61.9021,VALID,677.846,VALID,27.2888,VALID,260,VALID,0.493359,
2015-06-19, 10:42:04,VALID,917.64,VALID,0,VALID,62.9999,VALID,677.524,VALID,26.9567,VALID,250,VALID,0,
2015-06-19, 10:43:04,VALID,917.655,VALID,0,VALID,66.4609,VALID,687.623,VALID,26.9958,VALID,262,VALID,0,
2015-06-19, 10:44:04,VALID,917.709,VALID,0,VALID,66.9488,VALID,685.689,VALID,27.1911,VALID,8,VALID,0,
2015-06-19, 10:45:04,VALID,917.704,VALID,0,VALID,66.3695,VALID,687.409,VALID,27.4256,VALID,360,VALID,0,
2015-06-19, 10:46:04,VALID,917.687,VALID,0,VALID,63.4497,VALID,693.21,VALID,27.6406,VALID,360,VALID,0,
2015-06-19, 10:47:04,VALID,917.657,VALID,0,VALID,63.6708,VALID,700.946,VALID,27.9337,VALID,360,VALID,0,
2015-06-19, 10:48:04,VALID,917.626,VALID,0,VALID,61.4676,VALID,698.045,VALID,27.9902,VALID,23,VALID,0,
2015-06-19, 10:49:04,VALID,917.564,VALID,0,VALID,62.5425,VALID,695.252,VALID,27.912,VALID,22,VALID,0,
2015-06-19, 10:50:04,VALID,917.56,VALID,0,VALID,62.7865,VALID,686.764,VALID,27.9511,VALID,10,VALID,0.388281,
2015-06-19, 10:51:04,VALID,917.555,VALID,0,VALID,61.0712,VALID,677.739,VALID,27.9532,VALID,327,VALID,0.0101562,
2015-06-19, 10:52:04,VALID,917.53,VALID,0,VALID,59.699,VALID,665.49,VALID,27.5038,VALID,317,VALID,0.0417969,
2015-06-19, 10:53:04,VALID,917.54,VALID,0,VALID,63.7241,VALID,676.772,VALID,27.2672,VALID,32,VALID,1.72812,
2015-06-19, 10:54:04,VALID,917.579,VALID,0,VALID,62.39,VALID,683.326,VALID,27.3865,VALID,313,VALID,0,
2015-06-19, 10:55:04,VALID,917.587,VALID,0,VALID,63.4268,VALID,685.904,VALID,27.4842,VALID,240,VALID,0,